Theta_e
286 286 286 287 287 287 286 286 286 286 286 286 285 285 285 286 286 285 285 285 285 284 284 284 284 283 284 283 283 283 282 282 282 282 282 282 282 282 282 282 282 282
286 287 287 287 286 286 286 286 285 285 285 285 285 285 285 285 284 284 283 282 282 281 282 282 282 282 282 282 282 281 281 281 281 283 282 281 282 282 281 282 282 282
285 285 285 285 285 285 285 285 285 284 284 284 283 283 283 283 282 282 281 281 280 280 280 281 281 281 281 281 281 281 280 280 280 281 281 281 281 281 281 281 281 281
285 285 285 284 284 284 284 283 283 282 282 281 281 281 281 281 281 280 280 281 280 280 280 280 280 280 280 280 280 280 280 280 280 280 280 280 280 280 280 280 281 281
284 284 284 284 283 283 282 281 280 280 279 279 279 280 280 279 279 279 279 279 279 279 279 279 279 279 279 279 279 278 279 279 279 279 278 278 278 279 279 279 278 278
283 283 283 282 281 280 279 279 278 278 278 278 278 279 279 279 278 278 278 278 278 278 278 278 278 278 278 278 278 278 278 278 278 278 277 277 277 278 278 278 277 277
281 281 280 280 279 278 278 277 277 278 277 277 278 277 278 277 277 277 277 277 277 277 277 277 277 277 277 277 277 277 277 277 277 277 276 276 277 276 277 277 277 277
279 278 278 277 277 277 277 276 276 276 276 277 276 276 277 276 276 276 276 276 276 276 276 276 276 276 276 276 276 275 275 276 276 276 275 275 275 275 276 276 276 276
277 276 276 276 276 276 275 276 276 276 276 275 275 275 276 275 275 275 275 275 275 275 275 275 275 275 275 275 275 275 274 274 275 275 274 274 274 274 275 275 275 275
275 275 275 275 275 275 275 275 275 275 275 275 275 274 274 275 275 274 274 274 273 274 274 274 274 274 274 274 274 274 274 274 274 274 274 274 274 274 274 274 274 274
274 274 274 274 274 274 274 274 274 274 274 274 274 273 273 273 273 273 273 273 273 273 273 273 273 273 273 273 273 273 273 273 273 273 273 274 274 274 275 274 274 274
274 274 274 274 274 274 273 273 273 273 273 273 273 272 272 272 272 272 272 272 272 272 271 271 271 272 272 272 272 273 273 273 273 273 273 273 273 273 273 274 274 274
273 273 273 273 273 273 273 273 273 272 272 272 272 271 271 270 271 271 271 271 271 271 270 270 271 271 271 271 271 271 271 271 272 272 272 273 274 274 274 275 275 275
273 273 273 273 273 273 272 272 272 271 271 271 271 270 270 270 270 270 270 270 269 269 270 270 270 270 270 270 271 271 271 272 272 273 273 273 273 273 274 274 274 274
273 273 273 273 272 272 271 271 271 270 270 270 269 269 269 269 269 269 268 268 269 269 269 269 269 269 270 270 271 271 272 272 272 272 272 272 272 272 273 273 273 273
272 272 272 271 271 270 270 270 269 269 268 268 268 268 268 268 268 268 268 268 268 268 268 268 268 269 271 273 274 272 272 272 272 272 272 272 271 271 272 272 272 273
271 271 271 270 270 269 269 268 268 268 267 267 267 267 267 267 267 267 267 267 267 267 267 268 268 269 272 274 275 275 273 272 272 272 272 272 271 271 271 271 272 272
270 270 269 269 268 267 267 267 267 267 267 266 266 266 267 267 267 267 267 267 267 267 267 267 267 271 273 274 275 275 275 273 272 272 272 271 271 271 271 271 271 271
269 269 268 267 267 267 267 266 266 266 266 266 266 266 266 266 266 266 266 267 267 267 266 267 267 271 273 274 275 275 276 275 272 272 272 271 271 271 271 271 271 271
268 267 266 266 266 266 266 266 266 265 265 266 266 266 266 266 266 266 266 266 266 266 266 267 267 270 273 274 275 275 276 275 272 272 271 270 270 270 270 270 270 270
267 266 265 265 266 266 265 265 265 265 265 265 265 266 265 265 266 265 266 266 266 266 266 266 266 272 273 274 275 275 276 275 272 271 270 270 270 270 270 270 270 270
266 265 265 265 265 265 264 264 264 265 264 265 265 265 266 266 265 265 265 265 265 265 265 265 266 271 273 274 274 275 276 272 271 270 270 270 270 270 270 270 270 270
265 264 264 264 264 264 263 263 264 264 265 265 264 264 264 264 264 264 265 265 265 265 265 265 265 269 272 273 274 275 274 271 271 270 270 269 270 270 270 271 271 271
264 264 264 263 263 263 263 263 264 264 264 265 264 264 264 264 264 264 264 264 264 264 265 265 265 268 272 273 274 275 274 271 271 270 270 270 270 271 271 271 271 272
264 264 263 263 262 262 263 263 263 263 264 264 264 263 263 264 264 264 264 264 265 265 266 265 265 267 271 273 274 274 274 271 271 270 269 270 270 270 271 271 271 272
263 263 263 262 262 262 262 262 263 263 263 263 263 263 263 263 263 263 263 263 264 265 265 265 265 266 267 272 273 274 275 272 272 271 269 270 270 270 270 271 271 272
Wind_Speed
9 8 9 9 9 9 10 11 10 11 11 11 11 11 11 11 10 10 11 12 12 13 13 14 14 14 13 13 12 12 12 13 13 12 13 13 13 14 15 15 15 13
9 8 8 8 8 9 10 10 12 12 12 11 11 11 11 12 12 12 12 13 13 14 14 14 13 13 13 12 12 13 12 12 13 9 11 13 13 13 14 13 13 12
7 8 9 10 11 12 12 11 11 11 11 13 13 12 12 12 12 12 12 13 14 15 14 13 13 13 13 12 12 12 11 11 12 10 10 10 10 11 10 12 11 13
8 9 10 11 11 12 12 12 12 12 12 13 13 13 12 11 13 14 13 14 13 13 13 13 13 13 13 13 12 11 11 11 11 10 11 10 11 12 12 11 11 12
10 10 10 10 11 11 12 12 14 13 13 13 13 12 12 12 13 13 13 12 13 13 13 14 13 13 13 12 11 11 11 11 11 11 10 11 11 11 11 11 12 14
10 10 11 11 11 12 12 13 12 12 12 12 12 12 12 13 12 13 13 14 13 13 13 13 13 12 11 12 11 10 10 10 10 10 11 12 11 10 9 11 12 14
12 12 13 12 13 13 12 12 12 12 11 12 12 12 12 12 12 12 13 12 13 13 12 12 12 12 10 10 10 12 10 11 11 11 11 10 11 12 11 11 13 14
13 12 12 12 13 12 12 12 12 11 12 13 12 12 10 12 14 12 12 14 13 14 13 14 13 13 14 11 13 12 13 10 12 13 12 13 13 14 14 11 12 13
12 12 12 13 13 12 12 12 12 12 11 12 11 12 13 13 14 12 14 12 14 14 13 13 12 14 13 12 12 12 14 13 12 13 13 14 13 13 13 11 12 12
12 12 13 12 12 11 13 13 12 11 11 12 12 13 12 13 11 14 14 13 14 14 14 13 14 11 12 11 12 13 13 13 13 12 13 13 15 15 13 12 13 14
13 12 12 13 13 11 12 12 13 12 10 12 13 13 13 11 13 12 13 14 12 13 13 14 13 14 14 13 13 12 13 14 14 14 14 13 14 13 16 15 15 16
12 12 13 13 12 11 11 12 13 12 12 12 11 14 14 12 13 11 11 13 13 13 13 13 14 13 13 13 13 11 12 12 12 12 12 14 15 15 15 14 13 14
12 13 12 12 12 12 12 13 12 12 14 13 11 12 12 13 11 13 12 12 13 13 14 14 13 12 12 13 13 12 13 14 14 14 13 13 12 14 14 15 16 14
11 11 11 12 12 12 13 13 13 13 11 11 11 12 12 11 13 12 13 14 14 14 14 13 13 12 12 11 11 11 13 15 16 16 17 16 17 17 18 18 18 18
11 10 10 11 12 13 13 12 12 12 12 12 11 11 11 12 13 13 14 15 14 14 14 14 12 12 11 12 14 16 16 16 17 17 17 17 18 18 18 18 18 18
11 10 11 12 12 13 11 12 11 12 12 12 13 12 12 13 13 13 13 14 15 15 14 13 12 11 16 25 23 17 17 16 16 17 17 17 18 18 18 17 18 17
11 11 12 12 12 12 12 13 13 12 12 13 13 13 14 14 14 14 14 14 15 15 16 14 12 12 24 25 26 28 20 17 17 17 17 17 17 18 18 18 18 18
11 12 12 12 12 13 13 12 13 13 13 13 13 14 13 13 14 14 14 15 14 15 15 14 14 20 26 27 27 28 26 19 17 17 17 17 17 17 17 17 18 19
13 13 13 13 13 13 12 13 13 13 13 14 14 14 14 14 14 15 15 14 14 16 16 15 14 22 27 28 28 29 29 26 18 17 16 17 16 18 17 17 18 18
12 13 13 13 13 13 13 13 13 14 14 13 13 13 14 15 15 16 15 15 15 16 16 16 16 21 28 28 28 29 29 26 18 17 16 16 17 17 17 18 18 17
13 13 13 13 13 13 13 14 14 14 15 14 13 14 14 14 15 15 15 15 15 15 15 15 14 24 27 29 29 30 30 28 18 18 16 16 18 17 17 20 19 18
13 13 13 13 13 14 14 15 15 15 15 14 14 14 13 13 13 13 15 16 16 16 16 16 16 26 28 29 30 30 32 20 17 17 17 18 15 16 20 15 18 19
13 13 13 14 14 14 15 15 15 15 14 13 14 14 14 15 14 14 13 15 17 16 16 17 17 23 29 31 31 33 27 18 18 17 17 15 18 18 15 19 18 18
13 13 13 14 14 15 15 15 14 13 13 12 14 15 15 15 14 13 13 12 15 16 15 16 18 22 29 30 31 32 28 20 17 17 14 19 17 18 19 14 20 33
12 13 13 14 15 15 14 15 14 14 13 13 12 13 14 14 14 14 14 13 13 15 18 19 17 19 27 30 33 32 26 19 17 13 15 13 16 16 20 18 16 21
11 12 13 14 14 14 14 14 13 13 14 14 13 11 13 13 13 12 14 14 13 14 14 15 17 17 19 30 31 31 31 23 15 14 13 14 15 17 14 18 15 15
Wind_Direction
309 308 305 308 310 313 315 314 312 309 308 309 309 310 310 310 312 310 308 306 304 303 301 297 295 292 288 287 285 283 283 282 281 281 279 277 274 271 268 264 259 256
309 310 312 313 313 312 311 310 311 312 311 311 311 311 310 310 309 308 306 306 304 300 298 294 291 289 287 286 285 283 281 278 277 276 277 276 276 272 270 268 268 267
315 319 319 317 315 314 314 314 314 315 314 313 313 311 311 310 307 306 304 303 301 300 298 295 291 290 288 286 285 283 281 280 279 279 276 277 278 279 276 278 277 275
320 318 317 316 317 317 319 319 317 316 314 313 312 311 309 308 307 304 302 300 298 296 296 294 293 291 290 288 286 282 280 276 275 275 274 273 273 274 273 273 274 274
320 321 322 321 318 318 319 317 315 314 313 310 309 309 309 307 305 303 303 300 298 297 296 295 293 291 288 286 282 280 277 277 273 270 268 268 267 268 270 270 270 271
323 324 322 320 319 320 316 314 312 312 310 309 307 308 305 303 302 301 302 301 301 300 300 298 297 294 293 291 288 281 281 280 277 273 272 271 270 264 267 266 266 266
326 326 322 321 318 317 314 312 313 312 311 308 308 306 306 304 305 307 307 309 309 308 309 310 309 308 307 304 301 298 294 291 290 286 283 279 278 274 270 267 268 266
324 321 319 317 316 315 314 314 315 315 313 311 308 309 316 318 317 314 312 311 309 308 308 306 305 304 303 301 296 296 294 292 291 289 284 281 278 277 274 270 269 266
320 318 317 316 316 317 317 318 317 316 317 316 317 319 318 313 310 308 309 309 307 306 304 303 301 298 296 294 293 293 293 290 288 287 286 285 283 279 277 276 273 271
319 316 317 318 319 319 318 320 321 321 322 317 316 314 311 311 311 312 311 309 306 303 302 298 298 301 303 303 300 299 296 294 294 292 290 288 287 285 282 277 272 273
318 319 319 320 319 319 320 324 324 320 318 318 317 313 315 314 312 311 307 305 303 306 310 313 313 311 307 304 301 296 294 293 290 288 283 281 280 281 284 284 281 278
320 321 320 319 321 324 325 323 320 320 319 318 315 313 316 315 313 311 312 313 314 313 309 307 308 306 301 299 298 298 296 292 291 290 291 289 286 282 280 276 272 270
322 321 320 323 328 326 322 321 321 320 318 316 322 322 318 315 315 316 315 312 311 312 312 310 307 307 308 305 303 301 298 294 290 286 278 276 272 273 271 272 272 271
319 320 325 327 325 322 321 321 319 319 320 324 323 318 315 317 320 317 316 316 314 312 311 311 308 302 299 298 298 297 302 302 301 300 300 298 298 297 297 294 292 290
321 325 326 324 324 322 320 321 324 325 324 319 315 315 319 317 316 316 316 314 313 314 313 314 312 311 312 311 312 310 309 307 306 303 301 298 295 293 290 289 288 286
327 325 326 326 321 321 324 327 325 323 320 319 320 318 316 317 317 315 312 312 312 311 311 310 308 306 306 308 308 309 308 306 303 299 298 296 295 293 292 290 289 288
327 326 326 325 325 325 327 326 324 322 320 318 319 319 319 321 316 313 314 314 313 312 312 310 307 306 307 309 310 309 307 304 301 300 299 297 294 293 291 292 289 288
327 327 325 325 329 328 325 323 321 320 321 320 320 319 318 317 316 315 314 315 312 312 311 309 306 307 309 310 310 309 308 306 304 301 298 294 293 291 291 289 290 289
329 327 329 330 328 325 324 323 321 321 322 323 320 318 316 318 317 315 316 316 314 313 311 309 306 307 309 310 310 310 310 308 303 301 298 298 297 297 293 292 291 290
333 331 328 328 328 326 324 323 323 323 322 321 318 318 318 316 317 316 316 317 316 315 312 310 307 308 310 312 313 313 311 311 307 304 302 299 298 295 294 291 288 286
335 332 327 327 327 327 326 325 324 324 324 323 320 320 318 318 317 316 315 315 315 312 310 308 303 306 310 312 312 312 311 311 307 303 296 292 292 285 286 286 281 281
333 329 326 326 328 330 329 326 325 324 324 322 319 317 317 315 313 311 312 311 310 309 308 305 302 304 308 311 312 313 313 312 306 298 294 288 279 284 281 276 279 275
330 327 327 328 329 329 328 327 325 323 322 322 318 318 317 314 312 312 309 308 308 307 305 304 301 302 307 309 310 311 311 306 302 298 294 284 286 279 273 279 276 275
330 328 327 328 329 329 326 323 322 318 318 319 318 317 314 313 310 305 303 300 301 300 297 298 296 297 303 304 306 307 309 306 300 292 280 287 277 279 278 271 278 273
329 328 328 328 326 326 323 322 322 319 315 315 313 310 308 308 307 306 303 300 295 293 291 292 292 292 298 306 305 304 306 303 301 293 284 276 279 277 282 274 273 280
327 328 327 326 324 321 321 319 315 314 314 314 311 309 307 305 302 300 299 298 296 292 292 286 287 285 291 302 304 305 304 307 301 290 280 274 272 280 280 274 265 271